Theta_e
334 326 327 326 323 321 318 317 316 315 314 313 313 313 312 312 312 311 311 310 310 309 309 308 308 308 308 308 308 308 308 309 311 314 321 340 343 342 341 340 340 340 334
326 325 327 325 323 319 319 318 317 316 315 315 314 314 313 313 312 312 311 309 308 308 308 311 313 313 312 311 310 309 309 309 308 309 311 321 339 342 341 340 340 342 343
326 325 325 324 322 319 319 319 317 316 316 316 316 315 315 314 314 313 313 312 309 309 311 312 311 312 314 316 317 316 313 310 309 308 308 310 324 339 340 341 341 341 345
329 325 325 324 322 319 320 319 318 317 317 317 317 317 316 315 315 315 315 315 313 313 313 315 314 312 313 317 320 321 320 317 312 309 307 308 312 335 329 337 340 341 341
331 328 325 325 323 319 319 319 318 317 317 317 317 317 316 316 315 315 316 318 320 322 321 324 322 323 320 326 327 327 325 323 319 314 308 307 309 323 326 333 338 339 341
333 330 327 326 323 319 319 319 318 317 317 317 318 318 318 317 316 316 317 322 324 326 325 323 324 328 327 322 329 330 329 330 324 320 312 314 323 325 335 336 337 337 341
334 333 328 326 325 320 319 320 319 318 318 318 319 320 320 319 318 317 317 322 327 329 328 330 332 332 330 330 328 325 321 324 331 325 317 321 326 327 326 330 331 334 337
336 336 335 327 326 321 320 320 319 318 318 319 319 320 321 321 321 319 317 319 325 328 331 327 323 323 325 329 332 329 327 319 323 330 325 329 331 331 330 329 327 328 333
336 336 336 335 328 324 320 320 320 319 319 319 319 320 321 321 321 321 320 324 328 328 325 327 325 323 322 322 323 323 328 326 322 319 327 331 332 331 331 330 327 322 323
332 336 336 336 334 327 322 321 320 320 319 319 319 320 320 321 321 321 321 323 328 330 329 329 328 324 319 316 317 321 323 325 321 322 323 333 332 331 331 331 329 327 316
331 333 334 336 336 334 327 322 321 321 320 320 320 320 321 321 321 321 322 322 328 330 330 329 329 318 317 316 316 316 317 317 319 323 319 326 332 331 331 332 331 330 314
330 330 334 336 336 336 335 330 322 320 320 320 321 321 322 322 321 322 323 322 329 331 331 330 329 328 327 324 317 318 324 328 326 318 316 324 330 332 332 331 332 331 319
330 329 332 335 336 337 337 336 332 325 321 321 321 322 322 323 323 325 324 326 332 334 332 331 329 329 328 328 329 329 329 328 328 327 320 329 329 330 330 331 330 330 318
330 328 328 333 336 337 337 336 336 335 328 321 321 322 323 323 325 326 325 327 333 333 332 331 330 329 329 329 328 329 328 328 329 329 326 329 330 331 331 331 330 328 318
330 328 329 329 333 337 337 337 336 336 335 331 332 333 326 324 328 331 327 332 334 334 332 331 331 329 329 329 330 328 327 328 331 331 329 328 329 329 329 330 329 328 321
329 328 327 329 333 336 337 337 336 336 337 336 338 337 333 336 336 332 331 334 335 334 332 330 331 330 329 329 328 328 327 326 329 329 329 329 329 329 327 329 328 325 320
329 328 328 329 332 336 337 336 337 338 338 338 341 340 338 338 336 332 331 334 333 333 331 331 330 330 330 329 328 327 327 325 327 327 329 329 329 326 328 327 324 323 317
328 327 327 329 330 335 337 337 340 339 339 341 341 340 338 336 333 331 331 331 332 332 331 333 331 330 329 328 327 327 326 324 325 327 328 328 329 327 326 327 323 314 313
328 327 327 329 328 333 336 338 340 340 340 341 341 339 337 335 333 333 332 331 331 331 331 332 330 329 328 327 327 327 326 325 326 326 326 327 327 325 327 328 328 325 311
328 327 329 329 329 333 336 339 340 340 342 341 339 336 334 333 334 334 333 334 332 331 331 331 329 328 327 327 327 327 327 326 325 326 326 326 326 327 327 327 328 328 318
327 328 328 330 330 333 337 341 343 340 343 342 337 333 332 333 334 335 333 332 331 331 331 329 328 328 327 327 326 327 328 327 325 325 328 326 326 326 326 327 328 331 326
328 329 331 332 335 336 339 343 343 342 342 340 337 333 332 333 333 333 330 331 331 328 328 326 326 327 327 325 326 325 326 326 325 325 327 327 327 323 325 326 327 329 329
330 330 332 334 336 339 345 345 344 343 342 339 336 332 332 333 333 331 331 331 330 327 326 326 325 325 324 324 323 324 324 323 323 323 325 325 327 325 325 328 327 328 329
330 332 333 335 342 346 346 344 342 342 338 333 333 333 334 333 334 332 331 326 327 326 326 325 325 325 325 323 323 323 323 325 326 325 325 326 327 326 326 327 328 328 328
333 334 334 338 343 345 344 342 340 338 335 334 334 333 333 333 331 331 328 326 326 325 324 324 324 323 323 323 323 323 323 323 326 327 326 325 326 326 326 327 328 327 329
335 335 337 339 343 344 343 339 336 333 332 333 333 331 331 331 331 330 327 327 326 326 324 324 324 324 324 324 324 324 325 323 324 326 325 324 324 326 325 324 326 328 329
Wind_Speed
15 13 16 15 13 11 9 9 9 8 6 6 5 5 4 3 2 2 3 4 4 4 4 6 7 7 8 9 10 11 13 16 16 15 14 12 8 7 5 5 5 5 7
9 15 17 16 14 12 11 11 11 9 7 5 4 4 5 4 3 3 3 4 5 4 4 4 5 5 5 6 8 9 10 11 14 16 16 14 11 8 6 4 5 6 7
8 15 15 16 16 14 13 12 12 10 8 6 4 4 4 4 4 5 5 5 5 5 4 4 4 5 5 5 5 7 8 9 10 12 14 14 11 8 6 6 7 7 8
3 11 15 17 16 15 14 14 13 12 10 7 5 3 2 3 3 4 5 5 5 5 5 5 5 4 4 4 5 6 6 7 8 8 9 12 13 7 7 10 7 9 9
6 10 15 17 16 15 15 14 14 13 11 8 5 3 1 2 4 5 6 4 4 5 5 6 7 7 6 5 7 7 6 6 7 6 6 10 12 7 8 13 10 8 11
8 8 16 20 18 17 17 16 15 15 12 10 7 3 1 3 5 6 6 6 5 6 7 9 9 9 9 9 11 10 8 8 8 5 5 9 8 4 10 9 9 9 13
9 12 14 24 23 20 20 19 18 16 14 12 9 6 3 3 6 7 7 7 7 8 8 9 11 13 13 12 14 13 12 11 8 6 7 12 7 8 11 10 10 9 11
17 17 14 21 26 23 23 21 20 19 17 15 13 10 7 7 8 8 10 9 9 9 10 13 15 17 17 15 16 16 15 13 13 9 10 9 6 9 12 14 18 16 12
22 22 20 21 25 26 25 24 23 22 20 19 17 14 12 11 10 11 11 8 8 9 11 13 15 17 19 19 20 20 17 15 14 14 11 13 10 11 15 13 12 16 18
19 24 25 24 25 27 29 27 27 26 24 23 22 19 17 15 13 13 12 9 10 9 12 13 15 15 17 17 18 19 21 20 18 14 14 14 11 13 15 15 13 11 18
13 19 25 25 26 26 30 30 30 29 29 28 27 24 22 20 16 14 13 11 10 10 11 11 15 10 11 13 14 14 16 16 17 17 15 17 14 15 15 12 13 11 15
17 22 26 29 28 30 28 28 32 32 33 34 33 29 26 23 19 16 12 11 8 9 10 11 9 8 6 10 9 7 6 6 9 14 13 15 16 18 17 15 14 11 15
22 20 15 23 28 34 29 26 29 31 35 37 37 32 30 26 22 18 11 11 9 12 11 11 8 9 7 4 4 2 6 10 10 8 16 15 18 20 17 15 12 11 14
26 19 25 17 30 37 31 29 28 25 32 39 39 35 34 29 23 19 13 12 13 13 11 11 11 10 9 8 6 7 10 8 9 9 15 14 17 19 16 13 11 11 14
29 19 17 20 25 36 36 31 30 26 27 29 26 30 35 30 22 16 15 12 15 17 16 11 11 16 13 12 11 13 16 14 14 15 14 19 18 17 15 15 14 13 15
26 15 16 19 23 31 37 33 31 27 27 26 24 23 25 21 16 15 14 13 17 20 17 18 15 17 19 18 19 17 15 18 20 15 14 20 20 17 16 13 14 16 15
14 12 18 18 22 32 34 34 33 29 26 26 24 21 20 18 16 15 17 21 20 19 20 16 22 22 22 21 22 17 17 15 17 18 17 19 19 15 15 12 13 15 16
19 19 22 21 23 28 34 36 34 27 25 23 23 23 21 19 18 18 18 19 19 19 20 18 19 23 23 21 19 19 18 13 13 18 19 20 18 15 13 11 8 14 16
31 24 22 25 25 27 30 38 38 31 30 22 28 28 24 19 18 17 16 15 15 18 20 20 20 20 20 20 19 17 15 13 15 18 17 22 20 15 14 14 11 11 16
23 21 20 26 26 28 28 35 38 35 28 27 21 21 18 15 16 16 11 14 18 21 21 20 19 17 17 16 16 18 15 17 16 17 16 16 20 22 19 14 13 12 16
24 24 20 25 28 28 31 34 33 38 28 26 22 13 16 15 13 10 14 19 21 22 20 18 16 16 17 15 17 16 16 16 17 19 18 21 17 18 24 22 15 13 15
25 18 19 24 26 28 31 33 29 29 26 21 21 19 19 17 19 19 16 18 18 20 19 15 13 14 13 13 14 11 11 15 18 19 22 20 20 16 15 17 16 12 12
21 21 19 24 25 28 29 25 21 23 20 17 23 21 19 19 19 14 15 19 17 16 13 11 10 10 10 11 14 11 6 9 8 19 24 21 18 16 16 16 18 15 13
22 20 19 20 25 26 23 21 22 22 21 17 17 19 19 17 15 15 15 14 12 10 8 7 8 8 11 14 14 18 19 4 1 5 21 22 19 21 19 22 18 16 18
22 19 15 22 23 21 19 20 22 22 15 18 18 14 14 14 13 14 14 9 5 6 6 7 8 9 11 12 14 14 15 16 10 7 13 23 19 19 16 18 18 17 15
20 15 17 20 23 22 21 23 20 22 18 15 15 12 10 9 11 15 11 7 5 4 5 4 2 3 3 5 7 9 9 18 12 12 11 21 24 17 14 16 18 18 16
Wind_Direction
170 166 171 170 171 172 161 148 136 127 117 96 82 76 69 50 16 342 311 289 273 268 254 252 253 254 259 259 253 248 242 238 239 234 236 236 241 252 252 224 197 162 129
136 170 174 173 176 177 168 158 150 143 130 114 97 73 59 43 25 1 333 307 286 266 260 254 258 259 257 267 273 266 257 245 240 238 231 229 227 234 237 238 223 185 169
140 170 179 179 181 181 174 168 161 153 148 137 115 83 54 34 13 4 352 328 303 287 274 269 268 268 271 268 273 278 277 265 250 240 236 227 220 229 241 248 225 212 190
146 185 190 187 185 184 181 179 171 163 161 156 137 110 66 31 11 358 349 324 299 297 292 290 284 277 270 277 274 275 277 279 270 252 233 222 210 195 255 254 242 224 212
191 196 197 191 191 189 190 189 183 177 174 172 160 140 72 14 357 344 332 314 280 284 278 284 280 286 283 263 273 268 270 276 273 265 234 207 191 220 221 235 236 232 217
211 217 210 200 196 199 197 197 195 189 185 188 186 181 134 355 347 336 316 304 288 278 275 280 282 284 288 254 250 253 265 270 273 265 196 167 171 221 215 219 227 224 220
242 235 217 209 202 204 203 203 203 200 198 201 206 211 238 313 329 328 321 310 290 282 282 280 272 265 268 260 255 258 256 255 258 252 201 157 197 243 241 245 248 247 234
226 218 225 216 210 209 208 206 208 209 208 212 216 223 241 271 296 314 319 312 304 292 282 281 277 271 266 263 253 260 265 253 247 244 210 179 235 240 237 249 250 251 240
226 226 221 224 213 215 214 213 213 213 217 221 223 228 244 261 279 294 307 306 313 307 299 299 292 280 273 265 258 260 255 253 252 242 211 193 219 235 236 246 258 250 237
238 230 229 220 218 214 217 218 220 219 221 227 229 232 244 254 269 281 296 297 299 312 323 319 305 283 278 273 263 253 253 256 255 243 224 217 223 228 242 236 249 262 231
286 229 240 224 229 218 217 221 222 224 226 229 231 236 243 250 260 272 282 294 307 319 326 331 327 296 279 272 266 259 258 258 252 248 235 221 226 228 238 230 240 255 233
288 280 233 227 227 220 217 220 224 227 230 231 232 236 245 249 256 262 276 290 302 310 304 311 331 335 324 285 262 225 230 270 265 248 223 200 223 228 231 240 251 254 237
283 292 273 237 232 224 218 226 224 227 235 235 235 237 244 247 249 250 266 275 274 285 278 291 293 295 302 296 181 235 278 255 257 275 206 199 232 227 224 234 247 259 239
272 272 291 238 235 225 223 232 237 233 237 235 235 240 243 243 244 247 257 269 261 263 274 278 279 280 274 260 241 260 242 246 253 250 208 222 218 221 225 224 243 255 242
268 262 262 263 255 231 226 234 242 244 242 235 235 244 241 241 240 243 242 242 243 257 271 262 262 277 264 244 236 253 258 254 255 219 239 226 226 232 229 243 247 251 242
261 245 263 262 250 242 228 239 245 244 253 242 237 237 228 229 241 244 249 250 251 261 269 254 243 251 252 248 251 259 255 244 240 241 237 227 228 232 238 243 257 244 231
238 271 279 269 252 239 237 241 239 238 243 236 235 234 230 229 238 250 242 242 255 264 274 252 245 248 258 250 256 251 238 240 244 241 224 215 230 237 229 251 256 232 225
244 263 281 263 253 241 235 233 223 223 227 228 225 216 222 222 237 261 258 249 254 267 269 267 268 254 259 254 245 240 235 228 247 240 224 228 224 245 225 232 235 219 224
258 264 278 266 251 244 231 226 213 212 216 211 204 211 219 233 253 261 270 258 267 277 274 275 273 260 255 255 245 235 225 238 244 242 228 225 230 233 226 241 242 235 218
253 266 268 254 248 238 233 221 212 214 211 213 210 214 221 231 242 257 273 275 278 277 278 275 272 258 256 252 238 229 232 227 236 234 230 226 226 232 227 228 235 228 219
256 256 265 244 235 232 225 217 203 210 205 206 203 209 215 231 238 240 250 266 275 279 281 277 274 263 255 244 229 225 222 231 234 236 223 223 226 221 229 230 234 236 225
257 258 247 235 226 225 221 215 210 209 210 222 217 211 227 233 242 258 268 274 275 284 285 282 272 257 248 233 225 235 236 243 236 229 215 210 217 217 210 222 232 232 229
253 252 241 227 225 218 211 197 193 194 204 212 214 216 231 238 248 260 267 272 276 279 282 267 259 250 244 227 230 222 207 237 251 229 215 208 206 218 222 222 232 228 237
235 231 220 219 202 198 195 189 189 188 193 194 201 215 221 235 244 263 287 290 287 278 280 278 264 253 238 240 235 231 226 240 214 211 214 211 222 228 221 216 224 222 228
216 209 204 191 188 187 182 185 178 183 178 184 204 221 211 228 260 280 285 281 290 281 284 276 268 260 250 246 239 235 234 219 253 243 208 207 214 217 214 222 225 220 226
189 187 181 172 174 174 171 173 176 179 189 188 186 197 212 247 272 269 267 240 270 302 282 264 238 249 230 232 228 219 218 203 229 212 219 211 217 212 218 220 220 225 220